Temperature
14 14 15 15 15 15 15 15 15 15 15 15 15 16 16 16 16 15 15 15 15 15 15 15 15 15 15 15 15 15 15 15 15 15 15 14 14 14 14 14 14 14 14
14 14 14 14 15 15 15 15 15 15 15 15 15 15 15 15 15 15 15 15 15 15 15 15 15 15 15 15 15 15 15 15 15 15 14 14 14 14 14 14 14 13 14
13 14 14 14 14 15 15 15 15 15 15 15 15 15 15 15 15 15 15 15 15 15 15 15 15 15 15 15 15 15 15 15 15 15 14 13 14 14 14 14 13 13 13
13 13 14 14 14 14 14 14 15 14 15 15 15 15 15 15 15 15 15 15 15 15 15 15 15 14 14 14 15 15 15 15 15 14 13 13 13 13 13 13 13 13 13
13 13 13 14 14 14 14 14 14 14 14 14 15 15 15 15 15 15 15 15 15 15 15 14 14 14 14 14 14 15 15 14 14 14 13 13 13 13 13 13 13 13 13
13 13 13 13 14 14 14 14 14 14 14 14 14 14 14 15 15 14 15 14 14 14 14 14 14 14 14 14 14 14 14 14 14 13 13 13 13 13 13 13 13 13 13
12 12 13 13 13 13 13 14 14 14 14 14 14 14 14 14 14 14 14 14 14 14 14 14 14 14 14 14 14 14 14 14 13 13 12 12 12 13 13 13 13 12 12
12 12 12 13 13 13 13 13 13 13 14 14 14 14 14 14 14 14 14 14 14 14 14 14 14 14 14 14 14 14 14 14 13 12 12 12 13 12 12 12 12 12 12
12 12 12 12 12 12 13 13 13 13 13 13 13 13 14 14 14 14 14 14 14 14 14 14 14 14 14 14 14 14 14 13 13 12 12 12 13 12 12 12 12 12 12
11 11 11 12 12 12 12 12 12 13 13 13 13 13 13 13 13 14 14 14 14 14 14 13 13 14 13 13 13 13 13 13 12 12 12 12 13 12 12 12 12 12 12
11 11 11 11 11 11 12 12 12 12 12 12 12 13 13 13 13 13 13 13 14 13 13 13 13 13 13 13 13 13 13 12 12 12 12 12 12 12 12 12 12 12 12
10 10 11 11 11 11 11 11 11 11 12 12 12 12 12 12 12 13 13 13 13 13 13 13 13 13 13 12 13 13 12 12 12 12 12 12 12 12 12 12 12 12 12
10 10 10 10 10 11 11 11 11 11 11 11 12 12 12 12 12 12 12 12 12 12 12 12 12 12 12 12 12 12 12 12 12 12 12 12 12 12 12 12 12 12 11
9 10 10 10 10 10 10 10 10 11 11 11 11 11 11 11 11 11 12 12 12 12 12 12 12 12 12 12 12 12 12 12 12 12 12 12 12 12 12 12 11 11 11
9 9 9 9 10 10 10 10 10 10 10 10 11 11 11 11 11 11 11 11 11 11 11 11 11 11 11 11 11 11 12 11 11 11 11 12 12 11 11 11 11 11 11
9 9 9 9 9 9 9 9 10 10 10 10 10 10 10 10 10 10 10 11 11 11 11 11 11 11 11 11 11 11 11 11 11 11 11 11 11 11 11 11 11 11 11
8 8 8 8 8 9 9 9 9 9 9 9 10 10 10 10 10 10 10 10 10 10 10 10 10 10 10 10 10 11 11 11 11 11 11 11 11 11 11 11 11 11 11
7 8 8 8 8 8 8 8 8 9 9 9 9 9 9 9 9 9 9 10 10 10 10 10 10 10 10 10 10 10 10 10 10 10 10 10 10 11 11 11 11 10 10
7 7 7 8 8 8 8 8 8 8 8 8 9 9 9 9 9 9 9 9 9 9 9 9 9 9 9 9 10 10 10 10 10 10 10 10 10 10 10 10 10 10 10
7 7 7 7 7 7 7 7 7 8 8 8 8 8 8 8 8 8 9 9 9 9 9 9 9 9 9 9 9 9 9 9 10 9 9 10 10 10 10 10 10 10 10
6 6 6 7 7 7 7 7 7 7 7 7 7 8 8 8 8 8 8 8 8 8 8 8 8 8 8 9 9 8 9 9 9 9 9 9 9 9 9 9 9 9 9
6 6 6 6 6 6 6 6 6 6 7 7 7 7 7 7 7 7 8 8 8 8 8 8 8 8 8 8 8 7 7 8 8 9 8 9 9 9 9 9 9 9 9
5 6 6 6 6 6 6 6 6 6 6 6 6 7 7 7 7 7 7 7 7 7 7 8 7 8 7 7 7 7 7 8 7 8 8 8 8 8 8 8 8 8 8
5 5 5 5 5 6 6 6 6 6 6 6 6 6 6 6 6 6 7 7 7 7 7 7 7 7 7 7 7 7 7 7 7 6 7 7 7 8 8 8 8 8 8
5 5 5 5 5 5 5 5 5 5 5 5 5 5 6 6 6 6 6 6 6 7 7 7 7 7 6 6 6 6 7 7 7 6 6 7 7 7 7 7 7 7 7
5 5 5 5 5 5 5 5 5 5 5 5 5 5 5 5 5 6 6 6 6 6 6 6 6 6 6 6 6 6 6 6 6 6 6 6 6 6 6 7 7 7 7
Wind_Speed
1 1 2 2 3 4 4 5 5 5 5 5 5 5 5 5 5 5 5 6 6 6 6 6 7 7 8 9 9 9 9 9 9 9 9 9 9 9 9 8 6 7 9
1 1 3 3 3 3 4 5 4 5 5 5 5 5 5 5 4 4 5 5 5 5 5 5 6 6 7 8 8 8 8 8 8 8 7 8 9 8 8 7 6 8 8
2 2 2 3 3 2 3 4 4 4 4 4 4 4 5 4 4 4 4 4 4 4 5 5 5 6 7 7 7 7 7 7 7 6 5 6 7 7 7 7 7 8 7
2 2 2 3 3 2 3 3 4 4 3 4 4 4 4 4 5 4 3 4 4 4 5 5 5 5 6 6 7 6 6 7 6 4 4 5 6 7 6 7 7 7 7
2 2 2 3 3 3 2 3 3 4 3 3 3 4 4 4 4 4 4 3 3 3 4 4 5 5 5 6 6 6 6 6 5 4 4 4 5 6 6 6 6 6 6
2 2 2 2 3 3 3 2 3 3 3 3 3 3 3 4 4 4 4 4 2 3 3 4 4 4 4 5 5 5 5 5 5 3 3 3 4 5 5 5 5 5 5
1 2 2 2 2 3 4 3 2 3 3 4 3 3 4 4 4 4 4 4 3 2 3 3 3 3 4 4 4 5 5 4 3 3 2 3 4 5 5 5 5 4 4
2 2 1 1 2 3 3 4 3 3 4 4 4 4 4 4 4 4 4 3 3 2 2 2 2 2 3 4 4 4 4 3 4 3 2 2 4 4 4 4 3 3 3
3 2 2 1 2 2 3 3 4 3 3 3 3 3 3 3 3 3 3 3 2 2 1 2 2 2 2 3 4 4 4 3 3 2 2 2 3 3 3 4 3 2 2
3 3 2 1 1 1 1 3 3 3 3 3 3 3 2 2 2 3 3 3 2 1 1 1 1 2 2 3 3 4 3 5 3 3 2 2 4 3 3 3 2 2 2
3 3 3 2 1 0 1 1 2 3 3 2 2 2 1 1 2 2 2 3 3 1 1 1 1 1 2 3 3 3 4 4 3 3 2 3 4 3 3 2 2 1 1
3 3 2 3 2 1 0 1 0 1 1 1 0 0 0 0 0 1 2 3 3 3 1 1 1 2 2 2 3 3 2 4 3 3 1 2 4 3 3 2 2 1 1
3 3 3 2 3 1 1 0 0 0 0 0 0 0 0 0 0 0 1 1 1 1 1 1 1 1 1 1 1 1 2 3 3 2 2 3 4 4 3 2 2 1 1
3 3 3 3 2 2 1 1 1 0 1 1 1 1 0 0 0 0 0 0 0 1 1 1 1 1 1 2 2 2 2 2 2 3 2 3 3 4 3 3 2 2 2
3 3 3 3 2 2 1 1 1 1 1 1 0 1 1 0 1 1 0 1 1 1 1 2 2 2 2 2 2 2 2 3 3 3 2 3 3 3 4 3 3 3 3
3 3 3 2 2 2 2 2 1 1 1 1 1 1 1 1 1 1 1 1 1 1 1 2 2 2 2 2 2 2 3 3 3 3 3 3 4 4 4 4 4 3 4
4 3 3 2 2 2 1 2 2 1 1 1 1 1 1 1 1 1 1 1 1 2 2 2 2 2 2 2 2 3 2 2 3 3 3 3 4 4 4 4 4 4 4
4 3 2 2 2 2 1 2 2 1 1 1 1 1 1 2 2 1 1 1 2 2 2 2 2 2 2 2 2 2 3 2 3 3 3 3 3 3 4 4 4 5 5
4 3 2 2 1 1 2 1 1 1 1 1 1 1 1 2 2 1 1 1 2 2 2 2 2 2 2 2 2 3 3 3 3 3 3 3 2 3 4 3 3 4 5
3 3 2 2 1 1 1 1 1 1 1 1 1 1 1 2 3 2 1 2 1 1 2 2 3 3 3 2 2 3 3 3 3 3 3 2 2 2 3 4 4 4 4
3 3 3 1 1 1 1 2 2 2 2 1 1 1 1 2 3 2 1 1 2 2 2 2 3 3 2 1 2 3 3 4 3 3 3 3 2 2 2 3 3 4 4
3 3 3 2 2 2 2 2 2 2 2 2 1 2 1 2 2 2 2 2 2 2 2 2 3 3 2 2 2 2 2 3 2 3 3 3 2 1 2 3 3 3 4
4 3 3 3 3 3 2 2 2 2 2 2 2 2 2 2 2 2 3 3 3 3 3 3 3 3 2 2 2 2 2 2 1 2 3 3 2 2 2 2 3 3 4
4 3 3 4 3 3 3 3 4 3 3 3 3 2 2 2 3 2 3 3 3 3 3 3 3 3 3 3 3 2 2 1 1 1 2 2 2 2 2 2 2 3 3
4 3 3 4 4 3 3 4 4 4 3 3 3 3 3 2 2 3 3 3 3 2 3 3 3 3 3 3 3 2 2 2 2 2 3 2 2 2 2 2 2 2 3
4 4 4 4 4 4 4 4 5 5 4 4 4 4 3 2 2 3 3 3 3 2 3 3 4 4 3 3 3 3 2 2 2 2 3 3 3 2 2 2 1 2 3
Wind_Direction
61 43 59 46 67 77 78 78 83 83 83 81 80 78 84 98 104 100 101 104 110 115 118 115 110 109 111 111 107 101 96 94 92 91 88 85 81 83 85 83 81 80 71
22 70 82 43 60 81 86 77 83 82 82 87 87 82 78 84 97 102 101 102 109 112 114 121 116 115 114 115 114 108 101 97 94 92 95 98 87 81 83 78 62 73 73
62 73 105 55 47 75 89 87 80 90 86 88 90 85 80 75 78 91 98 99 105 116 111 112 118 123 119 119 119 116 110 105 102 104 121 104 96 85 84 80 73 76 75
67 75 97 59 45 58 92 93 88 86 92 90 90 89 84 77 68 69 88 89 100 113 116 116 116 117 127 124 121 120 118 112 110 128 121 96 97 90 85 82 78 75 72
74 64 81 64 51 45 81 104 98 91 85 90 95 90 86 80 68 62 66 77 88 101 118 122 121 121 122 133 130 126 124 123 130 149 107 99 97 95 92 87 82 77 71
71 53 69 61 52 47 57 94 104 98 87 83 92 92 86 81 72 61 56 59 80 96 101 124 128 130 122 127 137 135 131 137 163 138 116 108 102 101 99 92 89 85 78
59 45 58 71 64 51 45 57 95 96 89 82 86 94 92 84 76 71 65 57 62 101 108 114 128 136 135 131 140 143 140 161 173 143 133 115 96 102 103 95 90 88 77
19 36 52 108 85 66 53 53 54 77 80 75 71 83 90 85 80 76 71 64 59 88 122 128 128 137 149 153 151 149 151 189 184 167 153 130 101 114 116 103 90 82 72
12 17 23 136 129 96 67 62 53 59 72 75 70 68 79 86 92 77 71 62 61 59 89 133 152 150 142 164 166 160 164 203 199 166 169 145 117 126 122 106 88 78 65
0 4 359 26 105 129 106 70 65 55 53 69 68 66 80 97 106 89 76 64 56 59 58 132 146 160 153 150 163 168 179 204 204 186 184 140 133 140 130 118 109 93 74
343 354 354 348 345 249 179 92 84 73 61 69 67 66 101 141 131 114 68 56 43 41 71 142 177 175 168 162 152 163 197 209 202 202 188 135 157 163 154 140 137 127 89
325 333 345 338 328 305 236 132 165 122 90 66 83 40 322 353 10 25 75 58 45 35 44 167 205 187 201 188 168 176 218 220 212 206 179 148 177 179 173 170 171 151 108
304 322 329 328 326 310 337 313 309 36 49 356 349 333 300 342 5 11 85 77 49 24 18 68 223 222 230 231 233 227 260 250 228 217 190 161 190 195 190 193 204 225 238
299 309 328 327 316 313 314 312 314 333 309 313 330 296 292 18 331 311 248 313 320 341 318 294 278 265 249 230 236 255 260 261 247 233 194 165 199 206 207 210 229 253 262
292 300 316 324 305 312 308 303 314 292 271 276 315 310 274 253 265 287 302 307 277 303 277 280 271 263 251 252 249 251 258 257 249 242 215 179 198 215 222 223 237 254 273
290 303 316 319 328 324 328 310 302 305 290 287 317 317 286 265 262 274 275 282 283 279 275 269 280 272 251 255 261 254 255 250 245 242 238 208 194 209 223 231 239 254 270
285 296 303 304 325 319 317 315 311 308 297 302 320 300 304 287 260 258 268 270 292 275 255 261 266 274 256 253 260 257 247 249 249 245 245 240 221 205 218 238 249 259 269
289 295 299 300 296 320 318 309 315 305 301 292 289 299 294 302 267 247 264 273 294 275 252 247 247 261 256 256 266 264 239 232 247 250 246 241 243 237 222 231 251 264 273
290 294 291 293 291 320 323 294 307 305 282 278 271 308 299 306 282 251 256 277 284 269 251 247 251 258 256 256 266 266 243 232 233 248 247 242 250 254 249 230 239 262 276
293 296 293 303 315 331 333 288 303 295 279 290 281 296 293 302 291 269 258 266 266 252 251 253 253 265 255 248 262 269 252 234 224 233 248 244 248 257 260 255 250 252 263
303 299 294 295 303 308 315 288 275 272 268 266 286 283 294 311 291 263 262 257 259 247 247 250 247 252 259 254 258 270 245 222 220 231 253 256 242 249 266 266 266 269 261
301 297 295 286 281 281 271 276 263 270 264 264 274 294 299 303 296 261 249 246 244 246 241 244 245 247 257 252 259 256 241 214 210 240 238 238 245 238 263 288 280 274 276
307 298 289 282 268 263 265 282 263 259 260 257 256 265 288 287 280 270 253 246 238 237 239 243 246 246 250 252 253 252 242 228 262 221 234 226 241 258 258 281 290 293 284
301 294 283 277 267 262 254 249 252 247 249 260 258 260 270 285 284 271 257 247 240 238 240 240 249 254 249 248 254 256 263 254 226 246 236 229 255 273 275 282 295 302 293
305 295 287 283 273 266 256 251 258 251 253 257 256 255 262 264 276 271 256 246 242 242 243 240 245 249 246 248 251 252 239 230 229 243 260 261 265 267 283 282 291 313 313
313 308 293 283 277 268 261 259 256 250 247 246 246 245 254 253 257 264 259 245 239 243 243 240 242 242 247 245 242 240 231 211 211 232 254 266 273 281 292 288 283 309 320
Height
1527 1527 1527 1527 1528 1528 1528 1527 1527 1527 1527 1527 1527 1527 1527 1527 1527 1527 1526 1527 1527 1527 1527 1526 1526 1526 1526 1526 1525 1525 1525 1525 1524 1524 1524 1524 1524 1523 1523 1523 1523 1523 1522
1527 1527 1527 1527 1527 1527 1527 1527 1527 1527 1527 1527 1527 1527 1527 1527 1526 1526 1526 1526 1526 1526 1526 1526 1526 1526 1526 1526 1526 1525 1525 1525 1525 1525 1525 1525 1524 1524 1524 1523 1523 1523 1522
1526 1526 1526 1527 1527 1527 1527 1527 1527 1527 1527 1527 1527 1526 1526 1526 1526 1526 1526 1526 1526 1526 1526 1526 1526 1526 1526 1526 1526 1526 1525 1525 1525 1525 1525 1526 1525 1524 1524 1524 1523 1523 1522
1526 1526 1526 1526 1526 1527 1527 1526 1526 1526 1526 1526 1526 1526 1526 1526 1526 1526 1526 1526 1526 1526 1526 1526 1526 1526 1526 1526 1526 1526 1526 1525 1525 1526 1527 1526 1526 1525 1525 1524 1524 1523 1522
1526 1526 1526 1526 1526 1526 1526 1526 1526 1526 1526 1526 1526 1525 1525 1525 1525 1525 1525 1525 1525 1525 1525 1525 1525 1526 1526 1526 1526 1526 1526 1526 1526 1526 1527 1526 1526 1525 1525 1524 1523 1523 1522
1526 1526 1525 1525 1525 1525 1525 1525 1525 1525 1525 1524 1524 1524 1524 1524 1524 1524 1524 1524 1524 1524 1524 1524 1525 1525 1525 1525 1525 1525 1525 1525 1526 1527 1527 1526 1526 1525 1524 1524 1523 1523 1522
1525 1525 1524 1524 1524 1524 1524 1524 1524 1524 1524 1523 1523 1523 1523 1523 1523 1523 1523 1523 1523 1523 1523 1523 1524 1524 1524 1525 1525 1525 1525 1525 1526 1526 1526 1526 1525 1524 1524 1524 1523 1523 1522
1524 1524 1523 1523 1523 1523 1523 1523 1523 1523 1522 1522 1522 1522 1522 1522 1522 1522 1522 1522 1522 1522 1522 1522 1522 1523 1523 1523 1524 1524 1524 1524 1525 1526 1525 1525 1524 1524 1523 1523 1523 1522 1522
1524 1523 1522 1522 1522 1522 1522 1522 1521 1521 1521 1521 1521 1520 1520 1521 1521 1521 1520 1520 1521 1521 1521 1521 1521 1521 1522 1522 1522 1523 1523 1523 1524 1524 1524 1524 1524 1523 1523 1522 1522 1521 1521
1522 1522 1521 1521 1521 1521 1520 1520 1520 1520 1520 1519 1519 1519 1519 1519 1519 1519 1519 1519 1519 1519 1519 1519 1519 1520 1520 1520 1521 1521 1522 1522 1523 1523 1523 1523 1523 1522 1522 1521 1521 1520 1520
1521 1520 1520 1519 1519 1519 1519 1519 1519 1519 1518 1518 1518 1517 1517 1517 1517 1517 1517 1517 1517 1517 1517 1517 1517 1517 1518 1519 1519 1519 1520 1521 1521 1521 1521 1521 1521 1521 1521 1520 1520 1519 1519
1519 1519 1518 1518 1517 1517 1517 1517 1517 1517 1516 1516 1516 1516 1516 1516 1516 1516 1515 1515 1515 1515 1516 1516 1516 1516 1516 1517 1517 1518 1519 1519 1519 1519 1519 1519 1520 1520 1519 1519 1519 1518 1518
1517 1517 1517 1516 1516 1516 1515 1515 1515 1514 1514 1514 1514 1514 1514 1514 1514 1514 1514 1513 1513 1513 1513 1514 1514 1514 1514 1515 1515 1515 1516 1517 1517 1517 1517 1517 1518 1518 1518 1517 1517 1516 1516
1516 1515 1515 1514 1514 1514 1513 1513 1512 1512 1512 1512 1512 1511 1511 1511 1511 1511 1511 1511 1511 1511 1511 1511 1512 1512 1512 1512 1513 1513 1513 1514 1515 1515 1515 1515 1515 1516 1516 1515 1515 1515 1514
1513 1513 1513 1512 1512 1511 1511 1511 1510 1510 1510 1510 1509 1509 1509 1509 1509 1509 1509 1509 1509 1509 1510 1509 1509 1509 1509 1510 1510 1510 1511 1511 1512 1512 1512 1512 1513 1513 1513 1513 1513 1513 1512
1511 1511 1510 1509 1509 1508 1508 1508 1508 1508 1508 1507 1507 1507 1507 1507 1507 1507 1507 1507 1507 1507 1507 1507 1507 1507 1507 1507 1507 1507 1508 1508 1509 1509 1510 1510 1510 1510 1510 1511 1511 1510 1510
1508 1508 1508 1507 1506 1506 1506 1506 1506 1505 1505 1505 1504 1504 1504 1504 1504 1504 1504 1504 1504 1505 1505 1505 1505 1505 1505 1505 1505 1504 1505 1505 1506 1507 1507 1507 1507 1507 1508 1508 1508 1507 1507
1506 1506 1505 1505 1505 1504 1504 1503 1503 1503 1502 1502 1502 1502 1501 1501 1502 1502 1502 1502 1502 1502 1502 1502 1503 1503 1502 1502 1502 1501 1502 1502 1503 1503 1504 1504 1504 1504 1505 1505 1505 1505 1504
1504 1503 1503 1502 1501 1500 1500 1501 1500 1500 1500 1500 1499 1499 1498 1499 1499 1499 1499 1499 1499 1499 1500 1500 1500 1500 1500 1499 1499 1499 1499 1499 1500 1500 1501 1501 1501 1501 1501 1501 1502 1502 1501
1501 1501 1500 1499 1499 1498 1497 1497 1497 1497 1497 1497 1496 1497 1496 1496 1496 1496 1496 1497 1497 1497 1497 1497 1497 1497 1497 1497 1496 1496 1496 1496 1497 1497 1497 1497 1498 1498 1498 1498 1499 1498 1498
1498 1498 1497 1496 1496 1495 1495 1495 1494 1494 1494 1494 1494 1494 1494 1494 1494 1494 1494 1494 1494 1494 1494 1494 1494 1495 1494 1494 1494 1493 1493 1493 1493 1494 1494 1494 1495 1495 1495 1495 1495 1495 1494
1495 1494 1493 1493 1493 1493 1493 1493 1492 1492 1492 1491 1491 1491 1491 1491 1491 1491 1491 1491 1491 1491 1491 1491 1492 1492 1492 1492 1491 1491 1491 1492 1490 1490 1490 1491 1491 1491 1491 1491 1492 1491 1491
1493 1492 1491 1491 1491 1491 1491 1490 1490 1490 1489 1489 1488 1487 1488 1488 1488 1488 1488 1488 1488 1488 1488 1488 1489 1489 1489 1489 1489 1489 1489 1488 1488 1488 1488 1488 1488 1488 1488 1488 1488 1488 1488
1490 1489 1489 1488 1488 1488 1488 1487 1487 1486 1486 1485 1485 1484 1484 1485 1485 1485 1485 1485 1485 1485 1485 1485 1486 1486 1487 1486 1486 1486 1486 1485 1486 1486 1486 1486 1486 1485 1486 1485 1485 1484 1484
1488 1487 1486 1486 1485 1484 1484 1484 1483 1484 1483 1482 1482 1482 1481 1481 1481 1482 1482 1482 1481 1482 1482 1482 1483 1483 1484 1484 1484 1483 1483 1483 1483 1484 1483 1483 1483 1484 1483 1483 1482 1482 1481
1486 1485 1484 1483 1482 1482 1481 1480 1481 1480 1480 1479 1479 1478 1478 1477 1478 1478 1478 1478 1478 1478 1479 1479 1480 1480 1481 1481 1481 1481 1480 1480 1481 1481 1481 1480 1480 1480 1480 1480 1480 1479 1478